Regional Weather Roundup
Issued by NWS Sioux Falls, SD

Home | Current Version | Previous Version | Graphics & Text | Print | Product List | Glossary Off
Versions: 1 2 3 4 5 6 7 8 9 10 11 12 13 14 15 16 17 18 19 20 21 22 23 24 25 26 27 28 29 30 31 32 33 34 35 36 37 38 39 40 41 42 43 44 45 46 47 48 49 50

000
ASUS43 KFSD 310702
RWRFSD

WEATHER ROUNDUP FOR SE SOUTH DAKOTA/SW MINNESOTA/NW IOWA
NATIONAL WEATHER SERVICE SIOUX FALLS SD
200 AM CDT THU JUL 31 2014

NOTE: "FAIR" INDICATES FEW OR NO CLOUDS BELOW 12,000 FEET WITH NO
SIGNIFICANT WEATHER AND OR OBSTRUCTIONS TO VISIBILITY.


SDZ038>040-050-052>070-310800-
SOUTHEAST SOUTH DAKOTA

CITY           SKY/WX    TMP DP  RH WIND       PRES   REMARKS
CHAMBERLAIN    MOCLDY    64  55  71 SE7       30.07F
HURON          PTCLDY    62  57  83 SE3       30.08F
MADISON        FAIR      55  55 100 SW3       30.11F
MITCHELL       MOCLDY    68  57  68 S6        30.08F
SIOUX FALLS    CLEAR     58  54  86 CALM      30.10S
WINNER         FAIR      68  55  63 S7        30.05F
YANKTON        PTCLDY    63  55  77 CALM      30.10S
$$

MNZ071-072-080-081-089-090-097-098-310800-
SOUTHWEST MINNESOTA

CITY           SKY/WX    TMP DP  RH WIND       PRES   REMARKS
FAIRMONT       PTCLDY    61  52  72 CALM      30.08F
JACKSON        CLEAR     57  54  88 CALM      30.10F
LUVERNE        CLEAR     57  52  82 CALM      30.11S
MARSHALL       PTCLDY    57  52  82 SW5       30.08S
MONTEVIDEO     CLEAR     61  55  82 NW6       30.08F
PIPESTONE      CLEAR     61  55  82 CALM      30.11S
REDWOOD FALLS  CLEAR     63  55  75 W6        30.07F
TRACY          MOCLDY    62  59  90 SW6       30.10S
WINDOM         PTCLDY    57  55  94 CALM      30.10S
WORTHINGTON    CLEAR     57  54  88 W5        30.11F
$$

IAZ001>003-012>014-020>022-031-032-NEZ013-014-SDZ071-310800-
NORTHWEST IOWA

CITY           SKY/WX    TMP DP  RH WIND       PRES   REMARKS
CHEROKEE       CLEAR     56  56 100 CALM      30.11S
DENISON        PTCLDY    55  55 100 CALM      30.10F FOG
ESTHERVILLE    CLEAR     56  54  93 SW6       30.09F
LE MARS        CLEAR     54  54 100 CALM      30.11F
ORANGE CITY    CLEAR     63  52  67 CALM      30.11S
SHELDON        CLEAR     54  52  94 CALM      30.10S
SIOUX CITY     CLEAR     55  54  96 CALM      30.11S
SPENCER        CLEAR     55  54  96 CALM      30.10F
STORM LAKE     CLEAR     61  57  88 W7        30.12S
$$

ABBREVIATIONS USED IN REMARKS
   TC - TEMPERATURE IN CELSIUS
  WCI - WIND CHILL INDEX
   HX - HEAT INDEX
  VSB - VISIBILITY



USA.gov is the U.S. government's official web portal to all federal, state and local government web resources and services.